This is the latest recevied weather packets stored in our database for station/object IU1OLT-7. If no packets are shown the sender has not sent any weather packets the latest 10 day(s).
| Time | Temp. | Humidity | Pressure | Rain* | Wind** | Luminosity | Snow |
|---|---|---|---|---|---|---|---|
| 1788582391 | 25° C | 22% | 1023.3 hPa | - | - | - | - |
| 1788581491 | 24.44° C | 15% | 1023.3 hPa | - | - | - | - |
| 1788579691 | 24.44° C | 14% | 1023.6 hPa | - | - | - | - |
| 1788578791 | 24.44° C | 14% | 1023.6 hPa | - | - | - | - |
| 1788577897 | 24.44° C | 15% | 1023.7 hPa | - | - | - | - |
| 1788576997 | 23.89° C | 15% | 1023.8 hPa | - | - | - | - |
| 1788576091 | 23.89° C | 13% | 1023.8 hPa | - | - | - | - |
| 1788575191 | 24.44° C | 13% | 1023.8 hPa | - | - | - | - |
| 1788574303 | 24.44° C | 13% | 1023.9 hPa | - | - | - | - |
| 1788573391 | 23.89° C | 14% | 1024 hPa | - | - | - | - |
| 1788572491 | 23.89° C | 13% | 1024 hPa | - | - | - | - |
| 1788571598 | 24.44° C | 13% | 1024 hPa | - | - | - | - |
| 1788569797 | 24.44° C | 15% | 1024 hPa | - | - | - | - |
| 1788568891 | 24.44° C | 20% | 1024.2 hPa | - | - | - | - |
| 1788567991 | 24.44° C | 27% | 1024.2 hPa | - | - | - | - |
| 1788567097 | 23.89° C | 32% | 1024.5 hPa | - | - | - | - |
| 1788566197 | 23.33° C | 35% | 1024.6 hPa | - | - | - | - |
| 1788565297 | 23.89° C | 37% | 1024.6 hPa | - | - | - | - |
| 1788564397 | 23.33° C | 38% | 1024.6 hPa | - | - | - | - |
| 1788563499 | 23.33° C | 37% | 1024.8 hPa | - | - | - | - |
| 1788560797 | 23.89° C | 38% | 1024.9 hPa | - | - | - | - |
| 1788558999 | 23.89° C | 38% | 1025.1 hPa | - | - | - | - |
| 1788558091 | 23.89° C | 39% | 1025.1 hPa | - | - | - | - |
| 1788557197 | 23.89° C | 37% | 1025.1 hPa | - | - | - | - |
| 1788556297 | 24.44° C | 36% | 1025.1 hPa | - | - | - | - |
* Rain since midnight (hover to see other rain measurements)
** Current wind speed in m/s (hover to see current wind gust speed)